Погода в Карасу

Турция     41°06′12″N   30°41′47″E
темп.,
°C
ветер,
м/с
пор.,
м/с
влажн.,
%
обл.,
%
осадки,
мм/ч
давл.,
гПа
погр.,
м
22 апреля, чт
чт2200:00+9ююз227689 0.1 102122
03:00+8ю118438 0.1 102112
06:00+8ю22862 0.0 102214
09:00+13ююз12720 0.0 1023334
12:00+15зсз23570 0.0 10231106
15:00+15с33620 0.0 1022936
18:00+14всв23722 0.0 1022280
21:00+10вюв22824 0.0 102313
23 апреля, пт
пт2300:00+10ююв227977 0.0 102212
03:00+10ююв2275100 0.0 102111
06:00+10юв2271100 0.0 102012
09:00+15ююв116413 0.0 1020158
12:00+18ссз125462 0.0 1019727
15:00+18с236176 0.0 1019565
18:00+15с1272100 0.0 1020135
21:00+14ю1162100 0.0 102110
24 апреля, сб
сб2400:00+13ююз2268100 0.0 102118
03:00+12зюз1171100 0.0 102010
06:00+12с1173100 0.0 102010
09:00+14ссв1169100 0.0 1021270
12:00+13с1180100 0.5 1021183
15:00+12св2385100 1.3 1020266
18:00+10св3696100 0.4 1020301
21:00+10всв369893 0.5 1020259
25 апреля, вс
вс2500:00+9св2398100 0.4 1019210
03:00+9св4899100 4.3 1018447
06:00+9св6898100 1.8 1017494
09:00+9св3698100 2.3 1017391
12:00+10ссв3598100 0.4 1017373
15:00+10ссв3598100 0.6 1017364
18:00+9ссв4597100 0.1 1016477
21:00+9св3697100 0.3 1018429
26 апреля, пн
пн2600:00+9ссв3598100 0.1 1018384
03:00+9ссв3697100 0.3 1017431
06:00+9св3696100 0.3 1018502
09:00+9ссв4696100 0.4 1019497
12:00+10св459062 0.1 1019531
15:00+12ссв457943 0.2 1019720
18:00+10св46818 0.0 1018510
21:00+7всв34954 0.0 101992